Vorticity
nan nan nan nan nan nan nan nan nan nan nan nan nan nan nan nan nan nan nan nan nan nan nan nan nan nan nan nan nan nan nan nan nan nan nan nan nan nan nan nan nan nan nan nan
nan 6 8 15 14 14 17 12 5 9 16 15 7 8 4 7 9 8 7 8 7 10 12 10 10 9 11 10 13 11 10 8 10 16 10 7 7 9 9 9 9 9 9 nan
nan 5 16 20 13 8 12 11 11 14 13 7 6 4 8 14 9 7 8 8 10 11 10 10 9 9 9 10 14 11 10 11 10 11 12 9 9 7 9 11 10 10 10 nan
nan 9 10 2 12 15 13 11 7 11 16 4 1 6 16 15 6 8 9 10 12 10 10 9 9 11 9 8 9 10 13 19 11 11 10 9 9 9 10 9 10 12 12 nan
nan 9 6 10 16 15 10 8 16 15 6 2 7 16 13 1 4 10 11 9 9 9 9 9 10 10 9 11 11 12 15 13 19 14 5 10 9 10 13 10 12 13 10 nan
nan 9 9 6 6 8 11 15 9 6 8 8 12 14 0 0 11 8 9 11 8 9 10 11 9 9 10 9 10 15 18 13 13 9 12 9 10 12 11 9 12 13 9 nan
nan 7 8 8 5 12 14 9 7 5 6 11 12 8 6 8 7 9 8 8 10 11 11 9 8 9 10 10 12 14 12 10 8 11 12 13 10 11 9 10 14 10 8 nan
nan 10 8 13 12 8 7 11 13 7 8 6 9 7 9 9 8 9 9 9 10 12 10 7 10 10 9 10 13 11 11 9 11 13 11 13 11 9 10 13 13 10 9 nan
nan 6 6 8 11 10 13 12 7 6 7 8 9 9 8 9 10 9 10 11 12 10 8 11 11 10 11 13 13 10 9 11 12 12 14 11 11 11 13 13 10 8 9 nan
nan 6 6 14 18 18 10 5 7 10 7 10 7 10 10 9 9 10 9 12 9 9 12 11 10 12 13 12 10 12 12 14 13 11 12 11 11 13 14 12 11 9 9 nan
nan 11 15 17 15 6 5 11 10 11 9 8 11 8 8 11 12 11 11 9 10 11 11 9 10 11 11 13 12 13 12 12 15 12 10 11 12 13 15 13 10 9 10 nan
nan 16 17 10 7 6 6 15 15 9 8 10 8 11 12 11 10 10 11 11 10 9 10 12 12 12 12 13 11 12 12 11 12 12 11 11 11 13 11 10 8 9 8 nan
nan 18 12 6 6 14 13 9 12 12 8 8 11 10 11 11 8 9 10 9 9 11 11 11 12 14 17 14 11 9 10 9 10 10 12 13 10 8 8 13 13 10 6 nan
nan 12 6 9 15 14 10 11 9 2 7 9 12 10 10 9 10 9 10 11 11 12 12 10 12 14 10 12 13 11 10 10 12 10 11 10 9 10 10 10 14 18 17 nan
nan 5 12 16 14 10 7 4 7 9 10 10 9 9 10 9 10 11 10 11 12 12 11 11 13 10 12 15 12 11 11 13 9 10 10 10 11 11 11 10 10 11 18 nan
nan 11 15 10 9 8 8 7 8 11 9 10 10 12 9 10 10 11 11 11 11 10 13 17 13 10 12 10 10 12 17 13 8 10 11 11 11 11 11 11 11 11 12 nan
nan 13 9 10 7 7 8 11 13 11 10 12 12 8 10 12 11 9 11 12 10 9 13 13 11 13 13 13 14 12 11 11 12 9 11 11 11 11 10 11 10 11 14 nan
nan 11 7 7 9 12 12 12 12 9 10 10 11 10 10 9 8 9 11 10 11 13 17 17 15 13 10 9 11 14 11 9 11 11 12 11 10 10 11 11 10 11 13 nan
nan 8 7 7 10 14 12 10 8 8 11 13 10 10 9 10 12 9 8 10 13 13 17 19 16 11 11 12 11 10 11 11 9 10 12 12 10 9 11 11 11 11 11 nan
nan 4 6 9 13 12 10 11 10 10 10 13 10 9 10 11 8 9 14 14 14 15 15 15 14 11 10 12 11 8 11 11 10 11 12 12 10 10 11 11 12 11 11 nan
nan 10 10 10 9 9 12 11 10 9 10 11 10 8 9 10 11 13 11 11 15 18 17 15 12 10 11 14 10 11 11 10 11 11 12 11 11 11 10 11 11 12 12 nan
nan 10 11 11 10 11 13 9 8 9 10 11 12 10 9 11 13 14 14 13 12 13 15 14 14 10 8 12 12 12 12 9 9 11 12 12 11 11 11 11 11 12 12 nan
nan 11 10 12 11 9 8 11 14 12 10 10 9 11 12 12 11 9 12 14 10 13 13 17 16 14 12 8 9 9 10 11 11 10 10 11 11 11 10 10 11 11 11 nan
nan 10 11 11 9 10 10 15 18 15 12 11 14 13 11 12 13 11 9 7 11 16 14 13 16 15 9 8 10 10 11 12 12 12 12 11 11 12 11 11 10 10 11 nan
nan 11 12 11 11 13 13 13 12 12 16 14 10 14 17 13 8 9 12 10 15 15 14 16 14 10 10 11 10 9 10 11 12 11 11 11 11 12 13 13 12 11 11 nan
nan 11 11 11 12 12 14 15 13 11 12 12 10 12 13 12 12 11 10 11 13 15 14 14 14 13 12 11 11 10 10 12 11 11 12 11 11 11 11 12 12 12 12 nan
nan nan nan nan nan nan nan nan nan nan nan nan nan nan nan nan nan nan nan nan nan nan nan nan nan nan nan nan nan nan nan nan nan nan nan nan nan nan nan nan nan nan nan nan
CAPE
0 0 0 0 0 0 0 3 6 4 13 40 13 0 1 0 0 0 0 1 0 0 0 0 0 0 0 1 27 40 23 5 15 1 0 0 0 0 0 0 2 1 0 7
0 0 0 0 0 0 0 0 5 5 5 16 0 0 0 0 0 0 0 0 0 0 0 0 0 0 0 0 8 121 64 47 58 18 0 0 0 0 0 1 0 0 13 13
0 0 0 18 0 0 0 6 4 35 34 11 0 0 1 0 0 0 0 0 0 1 7 0 0 0 0 0 0 54 52 85 86 0 0 0 0 0 0 0 0 11 22 17
0 0 0 0 0 0 0 0 5 24 18 7 0 0 0 0 0 0 0 0 0 2 0 0 0 0 0 0 0 0 20 114 31 19 0 2 0 0 0 0 0 12 23 1
8 0 0 0 0 0 0 0 0 25 0 0 0 0 0 0 0 0 0 1 0 0 0 0 0 0 0 0 0 6 20 33 10 18 17 21 0 0 0 0 1 24 0 0
0 0 0 0 8 0 0 0 14 0 0 0 0 8 7 0 0 0 0 0 0 0 0 0 0 0 0 0 0 16 8 17 0 0 18 2 0 0 0 3 10 0 0 0
10 7 0 0 0 0 1 21 16 0 0 0 2 6 7 8 3 0 1 1 0 0 0 0 0 0 0 0 0 49 18 0 2 0 0 0 2 0 0 0 1 0 0 0
12 4 3 0 2 6 63 55 2 0 0 6 3 14 13 3 0 2 0 0 0 0 0 0 0 0 0 0 1 0 19 11 11 0 0 0 0 0 0 1 1 0 0 0
2 0 39 20 11 12 3 8 0 7 0 1 14 19 4 0 6 9 0 0 0 0 0 0 2 1 1 0 0 0 3 13 11 4 0 0 0 0 1 0 0 0 0 0
29 3 1 43 29 3 0 1 12 21 19 31 24 4 3 9 8 0 0 0 0 0 0 1 0 1 0 0 0 0 0 2 0 0 0 0 0 0 0 0 0 0 0 0
1 4 36 16 2 4 0 4 11 19 39 12 0 5 11 0 0 0 0 0 0 0 0 0 0 5 0 0 0 0 1 0 0 0 1 0 0 0 0 0 0 0 0 0
43 53 27 23 0 0 0 5 17 26 1 0 7 1 0 0 0 0 0 0 0 0 0 0 1 2 1 0 0 0 0 0 0 0 2 1 2 0 0 0 0 0 0 0
12 12 0 4 0 0 1 1 0 0 0 1 0 0 0 0 0 0 0 0 0 0 2 0 0 5 9 0 0 0 0 0 0 0 3 6 1 0 0 2 0 0 0 0
7 4 11 0 8 22 0 0 0 0 0 0 0 0 0 0 0 0 0 0 0 0 0 0 1 8 1 0 0 0 0 0 0 15 11 4 0 1 7 11 5 7 0 0
0 0 0 14 22 1 0 0 0 0 0 0 0 0 0 0 0 0 0 0 0 0 0 3 5 0 0 0 0 0 0 0 0 0 4 1 2 11 14 13 11 12 8 0
0 3 1 0 0 0 0 0 0 0 0 0 0 0 0 0 0 0 0 0 0 0 0 0 0 0 0 5 0 0 6 0 0 1 9 10 16 9 7 11 10 11 10 0
2 0 0 0 0 0 0 0 0 0 0 0 0 0 0 0 0 0 0 0 0 0 0 0 0 0 1 1 0 1 4 0 0 4 7 14 6 10 16 12 10 12 9 0
1 2 0 0 0 0 0 0 0 0 0 0 0 0 0 0 0 0 0 0 0 1 1 0 0 0 0 0 0 0 0 0 14 17 17 11 16 3 6 11 12 13 8 4
0 0 0 0 0 0 0 0 0 0 0 0 0 0 0 0 0 0 0 0 0 1 1 1 0 0 0 0 0 1 7 16 14 10 14 10 6 13 17 18 17 10 8 9
0 0 0 0 0 0 0 0 0 0 0 0 0 0 0 0 0 0 1 0 0 0 0 0 0 0 0 0 0 0 12 27 20 12 19 16 6 16 18 10 10 12 11 15
0 0 0 0 0 0 0 0 0 0 0 0 0 0 0 0 0 0 0 1 0 0 0 0 0 0 0 0 0 0 0 20 19 19 24 23 18 15 15 16 18 20 16 16
0 0 0 0 0 0 0 0 0 0 0 0 0 0 0 1 0 0 1 1 0 4 1 1 0 0 0 0 0 0 1 10 6 19 22 24 22 20 10 9 12 17 17 13
0 0 0 0 0 0 0 0 0 0 0 0 0 0 0 0 0 3 6 2 0 0 0 2 1 0 0 0 0 1 0 2 11 12 21 25 21 16 14 10 7 7 6 7
0 0 0 0 0 0 0 0 0 0 0 0 0 0 0 0 1 1 10 6 1 0 2 2 0 0 0 1 0 1 0 1 3 14 16 16 21 16 3 5 6 8 8 11
0 0 0 0 0 0 0 2 2 5 8 3 1 0 3 5 7 2 5 5 0 0 0 0 0 0 0 0 2 1 1 1 3 5 9 13 12 16 21 18 6 6 9 11
0 0 0 0 0 0 14 29 52 52 33 0 0 0 0 0 9 8 4 3 2 0 0 0 0 0 0 0 1 2 3 1 0 0 5 4 4 3 2 3 8 7 7 8
0 0 7 16 23 31 26 21 24 11 1 0 1 0 10 9 8 18 16 7 3 4 0 0 0 0 0 1 1 2 2 0 0 0 1 1 0 1 0 0 0 0 0 3